• In Hungary
  • List of Countries
  • For 7 days
  • Water Temperature
  • Satellite Maps
  • Weather Map
  • News
  • Weather Widgets
  • user-avatar
    Login

    Hourly Weather Komovi

    Today, 21 November, Tuesday

    Time Temperature Precipitation Wind Pressure Humidity
    00:00 -2°C° 0 mm 2 mps 687 mmHg 72%
    01:00 -2°C° 0 mm 2 mps 686 mmHg 72%
    02:00 -2°C° 0 mm 2 mps 686 mmHg 70%
    03:00 -2°C° 0 mm 2 mps 686 mmHg 68%
    04:00 -2°C° 0 mm 2 mps 686 mmHg 66%
    05:00 -2°C° 0 mm 2 mps 686 mmHg 64%
    06:00 -2°C° 0 mm 2 mps 686 mmHg 62%
    07:00 -1°C° 0 mm 2 mps 686 mmHg 59%
    08:00 +1°C° 0 mm 2 mps 686 mmHg 56%
    09:00 +3°C° 0 mm 2 mps 687 mmHg 53%
    10:00 +6°C° 0 mm 1 mps 687 mmHg 51%
    11:00 +5°C° 0 mm 2 mps 687 mmHg 53%
    12:00 +6°C° 0 mm 2 mps 687 mmHg 55%
    13:00 +6°C° 0 mm 2 mps 686 mmHg 60%
    14:00 +5°C° 0 mm 2 mps 686 mmHg 67%
    15:00 +4°C° 0 mm 2 mps 686 mmHg 73%
    16:00 +4°C° 0 mm 1 mps 686 mmHg 79%
    17:00 +3°C° 0 mm 1 mps 686 mmHg 81%
    18:00 +3°C° 0 mm 1 mps 687 mmHg 83%
    19:00 +1°C° 0 mm 2 mps 687 mmHg 85%
    20:00 +1°C° 0 mm 2 mps 687 mmHg 85%
    21:00 +1°C° 0 mm 2 mps 687 mmHg 85%
    22:00 +1°C° 0 mm 2 mps 687 mmHg 85%
    23:00 +1°C° 0 mm 2 mps 687 mmHg 85%

    Tomorrow, 22 November, Wednesday

    Time Temperature Precipitation Wind Pressure Humidity
    00:00 +1°C° 0 mm 2 mps 687 mmHg 85%
    01:00 +1°C° 0 mm 2 mps 687 mmHg 85%
    02:00 +1°C° 0 mm 2 mps 687 mmHg 86%
    03:00 +1°C° 0 mm 2 mps 687 mmHg 86%
    04:00 +1°C° 0 mm 2 mps 687 mmHg 86%
    05:00 +1°C° 0 mm 2 mps 687 mmHg 85%
    06:00 +2°C° 0 mm 2 mps 687 mmHg 85%
    07:00 +2°C° 0 mm 2 mps 687 mmHg 85%
    08:00 +3°C° 0 mm 2 mps 687 mmHg 81%
    09:00 +5°C° 0 mm 2 mps 688 mmHg 77%
    10:00 +8°C° 0 mm 1 mps 688 mmHg 73%
    11:00 +9°C° 0 mm 1 mps 688 mmHg 73%
    12:00 +8°C° 0 mm 2 mps 688 mmHg 73%
    13:00 +9°C° 0 mm 2 mps 688 mmHg 73%
    14:00 +9°C° 0 mm 1 mps 687 mmHg 78%
    15:00 +7°C° 0 mm 1 mps 687 mmHg 83%
    16:00 +6°C° 0 mm 1 mps 687 mmHg 88%
    17:00 +6°C° 0 mm 1 mps 687 mmHg 89%
    18:00 +5°C° 0 mm 1 mps 687 mmHg 89%
    19:00 +5°C° 0 mm 1 mps 687 mmHg 90%
    20:00 +5°C° 0 mm 1 mps 687 mmHg 88%
    21:00 +4°C° 0 mm 1 mps 687 mmHg 86%
    22:00 +4°C° 0 mm 1 mps 687 mmHg 84%
    23:00 +4°C° 0 mm 1 mps 687 mmHg 83%

    Day after tomorrow, 23 November, Thursday

    Time Temperature Precipitation Wind Pressure Humidity
    00:00 +4°C° 0 mm 1 mps 687 mmHg 82%
    01:00 +4°C° 0 mm 1 mps 687 mmHg 81%
    02:00 +4°C° 0 mm 1 mps 687 mmHg 80%
    03:00 +3°C° 0 mm 2 mps 687 mmHg 80%
    04:00 +3°C° 0 mm 2 mps 687 mmHg 80%
    05:00 +3°C° 0 mm 2 mps 687 mmHg 79%
    06:00 +3°C° 0 mm 2 mps 687 mmHg 77%
    07:00 +3°C° 0 mm 2 mps 687 mmHg 76%
    08:00 +5°C° 0 mm 2 mps 688 mmHg 72%
    09:00 +8°C° 0 mm 1 mps 688 mmHg 68%
    10:00 +10°C° 0 mm 1 mps 688 mmHg 64%
    11:00 +10°C° 0 mm 1 mps 688 mmHg 65%
    12:00 +11°C° 0 mm 1 mps 688 mmHg 67%
    13:00 +11°C° 0 mm 1 mps 688 mmHg 68%
    14:00 +10°C° 0 mm 1 mps 688 mmHg 74%
    15:00 +8°C° 0 mm 1 mps 688 mmHg 80%
    16:00 +7°C° 0 mm 1 mps 688 mmHg 87%
    17:00 +7°C° 0 mm 1 mps 688 mmHg 87%
    18:00 +6°C° 0 mm 1 mps 688 mmHg 88%
    19:00 +6°C° 0 mm 1 mps 689 mmHg 88%
    20:00 +5°C° 0 mm 1 mps 689 mmHg 87%
    21:00 +5°C° 0 mm 1 mps 689 mmHg 85%
    22:00 +5°C° 0 mm 1 mps 689 mmHg 84%
    23:00 +5°C° 0 mm 1 mps 689 mmHg 83%

    24 November, Friday

    Time Temperature Precipitation Wind Pressure Humidity
    00:00 +5°C° 0 mm 1 mps 689 mmHg 82%
    01:00 +5°C° 0 mm 1 mps 689 mmHg 81%
    02:00 +5°C° 0 mm 1 mps 689 mmHg 80%
    03:00 +5°C° 0 mm 1 mps 689 mmHg 80%
    04:00 +5°C° 0 mm 1 mps 689 mmHg 79%
    05:00 +4°C° 0 mm 1 mps 689 mmHg 79%
    06:00 +4°C° 0 mm 1 mps 689 mmHg 78%
    07:00 +4°C° 0 mm 1 mps 689 mmHg 77%
    08:00 +6°C° 0 mm 1 mps 689 mmHg 73%
    09:00 +8°C° 0 mm 1 mps 690 mmHg 68%
    10:00 +9°C° 0 mm 0 mps 690 mmHg 63%
    11:00 +10°C° 0 mm 1 mps 690 mmHg 64%
    12:00 +11°C° 0 mm 1 mps 689 mmHg 64%
    13:00 +11°C° 0 mm 1 mps 689 mmHg 65%
    14:00 +10°C° 0 mm 1 mps 689 mmHg 72%
    15:00 +9°C° 0 mm 1 mps 689 mmHg 79%
    16:00 +8°C° 0 mm 1 mps 689 mmHg 86%
    17:00 +7°C° 0 mm 1 mps 689 mmHg 87%
    18:00 +6°C° 0 mm 1 mps 689 mmHg 87%
    19:00 +6°C° 0 mm 1 mps 689 mmHg 88%
    20:00 +6°C° 0 mm 1 mps 689 mmHg 88%
    21:00 +6°C° 0 mm 1 mps 689 mmHg 87%
    22:00 +5°C° 0 mm 1 mps 689 mmHg 86%
    23:00 +5°C° 0 mm 1 mps 689 mmHg 86%

    25 November, Saturday

    Time Temperature Precipitation Wind Pressure Humidity
    00:00 +5°C° 0 mm 1 mps 689 mmHg 86%
    01:00 +5°C° 0 mm 1 mps 689 mmHg 86%
    02:00 +5°C° 0 mm 1 mps 689 mmHg 86%
    03:00 +5°C° 0 mm 1 mps 689 mmHg 85%
    04:00 +5°C° 0 mm 1 mps 688 mmHg 85%
    05:00 +4°C° 0 mm 1 mps 688 mmHg 84%
    06:00 +4°C° 0 mm 1 mps 688 mmHg 84%
    07:00 +4°C° 0 mm 1 mps 689 mmHg 83%
    08:00 +6°C° 0 mm 1 mps 689 mmHg 78%
    09:00 +8°C° 0 mm 1 mps 689 mmHg 74%
    10:00 +9°C° 0 mm 1 mps 689 mmHg 69%
    11:00 +10°C° 0 mm 1 mps 689 mmHg 69%
    12:00 +10°C° 0 mm 1 mps 689 mmHg 69%
    13:00 +10°C° 0 mm 2 mps 688 mmHg 70%
    14:00 +10°C° 0 mm 1 mps 688 mmHg 75%
    15:00 +8°C° 0 mm 1 mps 688 mmHg 81%
    16:00 +7°C° 0 mm 1 mps 688 mmHg 86%
    17:00 +7°C° 0 mm 1 mps 688 mmHg 87%
    18:00 +5°C° 0 mm 2 mps 688 mmHg 88%
    19:00 +5°C° 0 mm 2 mps 688 mmHg 89%
    20:00 +5°C° 0 mm 2 mps 688 mmHg 87%
    21:00 +5°C° 0 mm 2 mps 688 mmHg 86%
    22:00 +5°C° 0 mm 2 mps 688 mmHg 84%
    23:00 +5°C° 0 mm 2 mps 688 mmHg 83%

    26 November, Sunday

    Time Temperature Precipitation Wind Pressure Humidity
    00:00 +4°C° 0 mm 2 mps 688 mmHg 82%
    01:00 +4°C° 0 mm 2 mps 688 mmHg 82%
    02:00 +4°C° 0 mm 2 mps 688 mmHg 82%
    03:00 +4°C° 0 mm 2 mps 688 mmHg 82%
    04:00 +4°C° 0 mm 2 mps 688 mmHg 82%
    05:00 +4°C° 0 mm 2 mps 687 mmHg 83%
    06:00 +3°C° 0 mm 3 mps 687 mmHg 83%
    07:00 +3°C° 0 mm 3 mps 687 mmHg 84%
    08:00 +4°C° 0 mm 3 mps 688 mmHg 81%
    09:00 +5°C° 0 mm 3 mps 688 mmHg 79%
    10:00 +7°C° 0 mm 4 mps 688 mmHg 76%
    11:00 +7°C° 0 mm 4 mps 687 mmHg 77%
    12:00 +7°C° 0 mm 4 mps 687 mmHg 78%
    13:00 +7°C° 0 mm 4 mps 687 mmHg 80%
    14:00 +7°C° 0.1 mm 4 mps 686 mmHg 83%
    15:00 +6°C° 0.1 mm 4 mps 686 mmHg 86%
    16:00 +6°C° 0.1 mm 4 mps 686 mmHg 89%
    17:00 +6°C° 0.4 mm 4 mps 686 mmHg 90%
    18:00 +6°C° 0.4 mm 4 mps 686 mmHg 91%
    19:00 +5°C° 0.4 mm 4 mps 686 mmHg 92%
    20:00 +6°C° 1.2 mm 4 mps 686 mmHg 93%
    21:00 +6°C° 1.2 mm 4 mps 685 mmHg 93%
    22:00 +6°C° 1.2 mm 4 mps 685 mmHg 94%
    23:00 +6°C° 1.7 mm 4 mps 685 mmHg 95%
    Show more